| time (UTC) | temp F | wind direction | speed MPH | gust MPH | rain 1hr in | rain 24hr in | rain mn in | humidity % | barometer mb |
| 20260904161608 | 61 | 245 | 8.0 | 16.0 | 0.00 | 0.00 | 0.00 | 51 | 1008.3 |
| 20260904160100 | 62 | 237 | 5.0 | 10.0 | 0.00 | 0.00 | 0.00 | 47 | 1008.1 |
| 20260904154607 | 63 | 224 | 5.0 | 10.0 | 0.00 | 0.00 | 0.00 | 45 | 1007.9 |
| 20260904153129 | 64 | 209 | 3.0 | 8.0 | 0.00 | 0.00 | 0.00 | 45 | 1007.6 |
| 20260904151609 | 64 | 103 | 3.0 | 4.0 | 0.00 | 0.00 | 0.00 | 45 | 1007.1 |
| 20260904144604 | 62 | 51 | 3.0 | 6.0 | 0.00 | 0.00 | 0.00 | 49 | 1006.8 |
| 20260904143103 | 60 | 0 | 1.0 | 3.0 | 0.00 | 0.00 | 0.00 | 52 | 1007.0 |
| 20260904141603 | 60 | 26 | 2.0 | 4.0 | 0.00 | 0.00 | 0.00 | 50 | 1006.7 |
| 20260904140114 | 60 | 225 | 1.0 | 13.0 | 0.00 | 0.00 | 0.00 | 50 | 1007.1 |
| 20260904134609 | 58 | 93 | 2.0 | 7.0 | 0.00 | 0.00 | 0.00 | 53 | 1006.8 |
| 20260904133105 | 57 | 300 | 2.0 | 5.0 | 0.00 | 0.00 | 0.00 | 57 | 1007.0 |
| 20260904131605 | 55 | 321 | 2.0 | 5.0 | 0.00 | 0.00 | 0.00 | 58 | 1007.0 |
| 20260904130105 | 55 | 319 | 1.0 | 4.0 | 0.00 | 0.00 | 0.00 | 59 | 1006.8 |
| 20260904124606 | 55 | 20 | 2.0 | 7.0 | 0.00 | 0.00 | 0.00 | 58 | 1006.5 |
| 20260904123106 | 55 | 344 | 3.0 | 8.0 | 0.00 | 0.00 | 0.00 | 57 | 1006.4 |
| 20260904121600 | 55 | 35 | 4.0 | 8.0 | 0.00 | 0.00 | 0.00 | 57 | 1006.5 |
| 20260904120110 | 56 | 70 | 5.0 | 9.0 | 0.00 | 0.00 | 0.00 | 56 | 1006.6 |
| 20260904114603 | 55 | 351 | 5.0 | 9.0 | 0.00 | 0.00 | 0.00 | 56 | 1006.6 |
| 20260904113057 | 56 | 360 | 1.0 | 5.0 | 0.00 | 0.00 | 0.00 | 55 | 1006.8 |
| 20260904111600 | 57 | 13 | 4.0 | 10.0 | 0.00 | 0.00 | 0.00 | 53 | 1006.8 |
| 20260904110117 | 58 | 19 | 6.0 | 10.0 | 0.00 | 0.00 | 0.00 | 52 | 1006.9 |
| 20260904104557 | 58 | 28 | 5.0 | 12.0 | 0.00 | 0.00 | 0.00 | 53 | 1007.1 |
| 20260904103106 | 57 | 36 | 6.0 | 11.0 | 0.00 | 0.00 | 0.00 | 53 | 1007.2 |
| 20260904101605 | 57 | 27 | 8.0 | 13.0 | 0.00 | 0.00 | 0.00 | 53 | 1007.4 |
| 20260904100057 | 58 | 47 | 9.0 | 14.0 | 0.00 | 0.00 | 0.00 | 52 | 1007.4 |
| 20260904094604 | 57 | 330 | 7.0 | 14.0 | 0.00 | 0.00 | 0.00 | 53 | 1007.5 |
| 20260904093114 | 57 | 35 | 10.0 | 15.0 | 0.00 | 0.00 | 0.00 | 53 | 1007.5 |
| 20260904091559 | 57 | 27 | 7.0 | 13.0 | 0.00 | 0.00 | 0.00 | 54 | 1007.5 |
| 20260904090059 | 57 | 47 | 7.0 | 14.0 | 0.00 | 0.00 | 0.00 | 54 | 1007.6 |
| 20260904084608 | 58 | 53 | 7.0 | 18.0 | 0.00 | 0.00 | 0.00 | 54 | 1007.9 |
| 20260904083102 | 58 | 69 | 9.0 | 17.0 | 0.00 | 0.00 | 0.00 | 53 | 1008.0 |
| 20260904081600 | 59 | 36 | 11.0 | 18.0 | 0.00 | 0.00 | 0.00 | 52 | 1008.1 |
| 20260904080057 | 56 | 36 | 4.0 | 9.0 | 0.00 | 0.00 | 0.00 | 58 | 1008.2 |
| 20260904074605 | 55 | 338 | 0.0 | 4.0 | 0.00 | 0.00 | 0.00 | 61 | 1008.6 |
| 20260904073101 | 55 | 0 | 1.0 | 4.0 | 0.00 | 0.00 | 0.00 | 62 | 1008.5 |
| 20260904071600 | 55 | 338 | 3.0 | 5.0 | 0.00 | 0.00 | 0.00 | 62 | 1008.8 |
| 20260904070059 | 55 | 338 | 3.0 | 5.0 | 0.00 | 0.00 | 0.00 | 61 | 1009.0 |
| 20260904064604 | 55 | 338 | 2.0 | 5.0 | 0.00 | 0.00 | 0.00 | 62 | 1008.9 |
| 20260904063100 | 56 | 360 | 2.0 | 5.0 | 0.00 | 0.00 | 0.00 | 61 | 1009.0 |
| 20260904061603 | 56 | 0 | 2.0 | 5.0 | 0.00 | 0.00 | 0.00 | 60 | 1008.8 |
| 20260904060100 | 56 | 360 | 3.0 | 6.0 | 0.00 | 0.00 | 0.00 | 60 | 1008.9 |
| 20260904054604 | 56 | 355 | 3.0 | 5.0 | 0.00 | 0.00 | 0.00 | 59 | 1009.1 |
| 20260904053139 | 57 | 355 | 2.0 | 4.0 | 0.00 | 0.00 | 0.00 | 57 | 1009.3 |
| 20260904051601 | 57 | 355 | 2.0 | 4.0 | 0.00 | 0.00 | 0.00 | 56 | 1009.6 |
| 20260904050117 | 56 | 355 | 3.0 | 4.0 | 0.00 | 0.00 | 0.00 | 56 | 1009.6 |
| 20260904044605 | 56 | 0 | 0.0 | 1.0 | 0.00 | 0.00 | 0.00 | 57 | 1009.7 |
| 20260904043100 | 56 | 355 | 1.0 | 4.0 | 0.00 | 0.00 | 0.00 | 56 | 1009.7 |
| 20260904041605 | 56 | 355 | 1.0 | 5.0 | 0.00 | 0.00 | 0.00 | 55 | 1009.7 |
| 20260904040103 | 56 | 355 | 1.0 | 4.0 | 0.00 | 0.00 | 0.00 | 55 | 1009.6 |
| 20260904034606 | 57 | 355 | 2.0 | 5.0 | 0.00 | 0.00 | 0.00 | 51 | 1009.4 |
| 20260904033117 | 58 | 355 | 3.0 | 5.0 | 0.00 | 0.00 | 0.00 | 50 | 1009.5 |
| 20260904031557 | 58 | 19 | 2.0 | 7.0 | 0.00 | 0.00 | 0.00 | 52 | 1009.7 |
| 20260904030107 | 58 | 355 | 2.0 | 5.0 | 0.00 | 0.00 | 0.00 | 52 | 1009.5 |
| 20260904024600 | 60 | 355 | 2.0 | 6.0 | 0.00 | 0.00 | 0.00 | 48 | 1009.1 |
| 20260904023059 | 62 | 349 | 2.0 | 6.0 | 0.00 | 0.00 | 0.00 | 46 | 1009.1 |
| 20260904021600 | 63 | 352 | 2.0 | 7.0 | 0.00 | 0.00 | 0.00 | 44 | 1008.9 |
| 20260904020109 | 64 | 329 | 3.0 | 9.0 | 0.00 | 0.00 | 0.00 | 43 | 1008.6 |
| 20260904014649 | 67 | 292 | 4.0 | 9.0 | 0.00 | 0.00 | 0.00 | 39 | 1008.7 |
| 20260904013108 | 69 | 328 | 7.0 | 12.0 | 0.00 | 0.00 | 0.00 | 36 | 1008.7 |
| 20260904011607 | 70 | 320 | 8.0 | 14.0 | 0.00 | 0.00 | 0.00 | 35 | 1008.7 |
| 20260904010100 | 71 | 326 | 7.0 | 14.0 | 0.00 | 0.00 | 0.00 | 35 | 1008.7 |
| 20260904004606 | 71 | 241 | 7.0 | 15.0 | 0.00 | 0.01 | 0.00 | 34 | 1008.7 |
| 20260904003111 | 72 | 292 | 10.0 | 18.0 | 0.00 | 0.01 | 0.00 | 34 | 1008.6 |
| 20260904001559 | 73 | 275 | 11.0 | 18.0 | 0.00 | 0.01 | 0.00 | 34 | 1008.5 |
| 20260904000057 | 73 | 306 | 10.0 | 19.0 | 0.00 | 0.01 | 0.00 | 33 | 1008.3 |
| 20260903234615 | 73 | 258 | 11.0 | 19.0 | 0.00 | 0.02 | 0.00 | 33 | 1008.0 |
| 20260903233100 | 74 | 267 | 12.0 | 21.0 | 0.00 | 0.02 | 0.00 | 33 | 1008.0 |
| 20260903231557 | 75 | 282 | 10.0 | 25.0 | 0.00 | 0.02 | 0.00 | 33 | 1007.9 |
| 20260903230107 | 75 | 311 | 12.0 | 19.0 | 0.00 | 0.02 | 0.00 | 33 | 1008.0 |
| 20260903224605 | 75 | 252 | 7.0 | 18.0 | 0.00 | 0.03 | 0.00 | 32 | 1007.8 |
| 20260903223059 | 74 | 265 | 6.0 | 14.0 | 0.00 | 0.03 | 0.00 | 31 | 1007.7 |
| 20260903221557 | 75 | 228 | 9.0 | 20.0 | 0.00 | 0.03 | 0.00 | 31 | 1007.4 |
| 20260903220105 | 75 | 232 | 9.0 | 16.0 | 0.00 | 0.03 | 0.00 | 32 | 1007.3 |
| 20260903214608 | 74 | 235 | 10.0 | 19.0 | 0.00 | 0.03 | 0.00 | 30 | 1007.3 |
| 20260903213100 | 74 | 225 | 10.0 | 21.0 | 0.00 | 0.03 | 0.00 | 30 | 1007.2 |
| 20260903211558 | 75 | 257 | 7.0 | 18.0 | 0.00 | 0.03 | 0.00 | 31 | 1007.2 |
| 20260903210105 | 74 | 225 | 9.0 | 16.0 | 0.00 | 0.03 | 0.00 | 31 | 1007.0 |
| 20260903204607 | 74 | 245 | 9.0 | 15.0 | 0.00 | 0.03 | 0.00 | 32 | 1007.1 |
| 20260903203100 | 73 | 241 | 9.0 | 19.0 | 0.00 | 0.03 | 0.00 | 33 | 1007.2 |
| 20260903201603 | 73 | 227 | 10.0 | 22.0 | 0.00 | 0.03 | 0.00 | 33 | 1007.1 |
| 20260903194605 | 72 | 223 | 10.0 | 20.0 | 0.00 | 0.03 | 0.00 | 33 | 1007.3 |
| 20260903193119 | 72 | 235 | 9.0 | 19.0 | 0.00 | 0.03 | 0.00 | 34 | 1007.4 |
| 20260903191606 | 73 | 221 | 9.0 | 23.0 | 0.00 | 0.03 | 0.00 | 34 | 1007.4 |
| 20260903190105 | 72 | 270 | 8.0 | 24.0 | 0.00 | 0.03 | 0.00 | 34 | 1007.3 |
| 20260903184557 | 71 | 225 | 12.0 | 21.0 | 0.00 | 0.03 | 0.00 | 35 | 1007.3 |
| 20260903183106 | 71 | 205 | 8.0 | 19.0 | 0.00 | 0.03 | 0.00 | 36 | 1007.2 |
| 20260903181608 | 71 | 221 | 9.0 | 17.0 | 0.00 | 0.03 | 0.00 | 37 | 1007.3 |
| 20260903180107 | 70 | 236 | 11.0 | 20.0 | 0.00 | 0.03 | 0.00 | 37 | 1007.5 |
| 20260903174558 | 69 | 202 | 9.0 | 22.0 | 0.00 | 0.03 | 0.00 | 39 | 1007.5 |
| 20260903173107 | 69 | 229 | 4.0 | 10.0 | 0.00 | 0.03 | 0.00 | 47 | 1007.6 |
| 20260903171602 | 66 | 122 | 1.0 | 5.0 | 0.00 | 0.03 | 0.00 | 53 | 1007.8 |
| 20260903170206 | 64 | 0 | 2.0 | 5.0 | 0.00 | 0.03 | 0.00 | 57 | 1007.9 |
| 20260903164558 | 62 | 207 | 1.0 | 4.0 | 0.00 | 0.03 | 0.00 | 59 | 1007.7 |
| 20260903163055 | 60 | 0 | 0.0 | 3.0 | 0.00 | 0.03 | 0.00 | 63 | 1007.9 |